[[{"header":{"parameterUnit":"m.s-1","parameterCategory":1,"la1":30.2991,"la2":30.254,"lo1":-89.0895,"lo2":-89.0444,"dy":0.0017,"dx":0.0017,"nx":28,"ny":28,"refTime":"2025-05-27T21:00:00:Z","depth":0,"parameterNumber":2,"parameterNumberName":"U-component_of_WINDS"},"data":[0,0,0,0,0,0,0,0,0,0,0,0,0,0,0,0,0,0,0,0,0,0,0,0,0,0,0,0,0,0,0,0,0,0,0,0,0,0,0,0,0,0,0,0,0,0,0,0,0,0,0,0,0,0,0,0,0,0,-1.0474,-1.0474,0,-1.0418,-1.0417,-1.0416,-1.0401,-1.0402,-1.0402,-1.0402,-1.0341,-1.0339,-1.0337,0,0,0,0,0,0,0,0,0,0,0,0,0,-1.0566,-1.0564,-1.0474,-1.0474,-1.0473,-1.0418,-1.0417,-1.0416,-1.0401,-1.0402,-1.0402,-1.0402,-1.0342,-1.0339,-1.0337,0,0,0,0,0,0,0,0,0,0,0,0,0,-1.0519,-1.0563,-1.0474,-1.0459,-1.0457,-1.0418,-1.0417,-1.0416,-1.0401,-1.0402,-1.0402,-1.0403,-1.0342,-1.0339,-1.0337,-1.0308,0,0,-1.0328,-1.0326,0,0,0,0,0,0,0,0,-1.0522,-1.0516,-1.0462,-1.046,-1.0458,-1.0417,-1.0427,-1.038,-1.0401,-1.0422,-1.0402,-1.0403,-1.0366,-1.0361,-1.0349,-1.0305,-1.0302,-1.0327,-1.0326,-1.0324,-1.0323,0,0,0,0,0,0,0,-1.0525,-1.0518,-1.0452,-1.0461,-1.0458,-1.0453,-1.0447,-1.0418,-1.0391,-1.042,-1.0419,-1.0413,-1.0364,-1.0352,-1.0347,-1.0302,-1.0327,-1.0325,-1.0323,-1.0322,-1.0229,-1.0229,0,0,0,0,0,0,-1.0531,-1.0521,-1.0454,-1.045,-1.0492,-1.0451,-1.0445,-1.0429,-1.0392,-1.0387,-1.0412,-1.0412,-1.0357,-1.0351,-1.0345,-1.0308,-1.0324,-1.0322,-1.032,-1.023,-1.0229,-1.0229,0,0,0,0,0,0,-1.0533,-1.0526,-1.0456,-1.0485,-1.0476,-1.0449,-1.0432,-1.0428,-1.0415,-1.0386,-1.0381,-1.0404,-1.0357,-1.0349,-1.0317,-1.0306,-1.032,-1.0318,-1.0231,-1.023,-1.0229,-1.0234,0,0,0,0,0,0,-1.0536,-1.0526,-1.0516,-1.0485,-1.0474,-1.043,-1.0432,-1.0427,-1.0411,-1.041,-1.0377,-1.0372,-1.0357,-1.0322,-1.0314,-1.0302,-1.0315,-1.0232,-1.023,-1.0229,-1.0235,-1.0234,-1.0232,0,0,0,0,0,-1.0539,-1.052,-1.0516,-1.0508,-1.0461,-1.043,-1.0423,-1.0407,-1.041,-1.0399,-1.038,-1.0373,-1.0308,-1.0318,-1.031,-1.0297,-1.0232,-1.0231,-1.0229,-1.0236,-1.0234,-1.0232,0,0,0,0,0,0,-1.055,-1.0515,-1.0511,-1.0481,-1.0458,-1.0427,-1.0413,-1.0406,-1.0381,-1.0381,-1.0361,-1.0354,-1.0322,-1.0306,-1.0318,-1.0266,-1.027,-1.0267,-1.0278,-1.0276,-1.0275,-1.0279,-1.0313,0,0,0,0,0,-1.0549,-1.0527,-1.0497,-1.0474,-1.0463,-1.044,-1.0425,-1.0414,-1.039,-1.038,-1.0358,-1.0334,-1.0308,-1.0291,-1.0266,-1.0233,-1.0224,-1.0219,-1.0218,-1.0217,-1.0214,-1.0194,-1.0191,-1.0223,-1.0223,-1.0223,0,0,-1.0546,-1.0524,-1.0512,-1.0475,-1.0456,-1.0433,-1.0432,-1.0407,-1.0389,-1.0376,-1.0344,-1.0328,-1.0299,-1.0266,-1.025,-1.0251,-1.0203,-1.0215,-1.0215,-1.0212,-1.0192,-1.0189,-1.0186,-1.0222,-1.0223,-1.0223,0,0,-1.0529,-1.0511,-1.0488,-1.047,-1.0442,-1.0426,-1.0421,-1.039,-1.0379,-1.0347,-1.0336,-1.0314,-1.027,-1.0249,-1.0233,-1.0207,-1.0199,-1.0199,-1.0191,-1.0172,-1.0169,-1.0167,-1.0156,-1.0153,-1.0196,-1.0196,-1.0196,0,-1.0529,-1.0494,-1.0478,-1.0453,-1.0437,-1.0424,-1.04,-1.0383,-1.0347,-1.0336,-1.0338,-1.0281,-1.0261,-1.0222,-1.0216,-1.0204,-1.0195,-1.0202,-1.0171,-1.0169,-1.0166,-1.0156,-1.0152,-1.0196,-1.0196,-1.0196,-1.0196,0,-1.0494,-1.047,-1.0455,-1.0422,-1.0404,-1.038,-1.0358,-1.0342,-1.0332,-1.0316,-1.0283,-1.0258,-1.0226,-1.0217,-1.0207,-1.0176,-1.0177,-1.0176,-1.0179,-1.0164,-1.0153,-1.0149,-1.0196,-1.0196,-1.0196,-1.0196,0,0,-1.0483,-1.044,-1.0435,-1.0419,-1.0386,-1.0367,-1.0341,-1.0311,-1.0297,-1.0272,-1.0249,-1.0212,-1.021,-1.0191,-1.0179,-1.0162,-1.0141,-1.0162,-1.0161,-1.0158,-1.0104,-1.0105,-1.01,-1.0136,-1.0135,-1.0135,-1.0106,0,-1.0461,-1.0416,-1.04,-1.0363,-1.0339,-1.0327,-1.0304,-1.0281,-1.0265,-1.0241,-1.0223,-1.0196,-1.0196,-1.0185,-1.0168,-1.0147,-1.013,-1.0149,-1.0113,-1.0112,-1.012,-1.0095,-1.0096,-1.007,-1.0102,-1.0101,-1.0101,0,-1.043,-1.0405,-1.0366,-1.0335,-1.0324,-1.0305,-1.0275,-1.0253,-1.0226,-1.0215,-1.0194,-1.0183,-1.0154,-1.016,-1.0119,-1.0132,-1.0117,-1.0104,-1.0103,-1.0098,-1.0105,-1.0089,-1.0062,-1.0057,-1.0094,-1.0095,-1.0095,0,-1.0424,-1.0381,-1.0352,-1.0338,-1.0302,-1.0288,-1.0272,-1.0245,-1.0227,-1.0201,-1.0189,-1.016,-1.0143,-1.012,-1.01,-1.0106,-1.006,-1.0065,-1.0049,-1.005,-1.004,-1.0041,-1.0009,-1.0031,-1.0031,-1.0031,-1.0032,0,-1.0401,-1.0377,-1.0348,-1.033,-1.0302,-1.0283,-1.0255,-1.0238,-1.0214,-1.0191,-1.0178,-1.0157,-1.0132,-1.0107,-1.0091,-1.0059,-1.0052,-1.0041,-1.0037,-1.0042,-1.0043,-1.0031,-1.0032,-1.003,-1.0031,-1.0031,-1.0031,0,-1.039,-1.037,-1.0337,-1.0304,-1.0295,-1.0276,-1.0248,-1.0229,-1.0212,-1.0183,-1.0175,-1.0148,-1.0117,-1.0095,-1.0056,-1.0045,-1.001,-1.0007,-1.002,-1.0017,-1.0003,-1.0004,-0.9961,-0.9954,-0.9982,-0.9982,-0.9982,0,-1.0377,-1.0358,-1.0323,-1.0307,-1.0291,-1.0265,-1.0247,-1.0227,-1.0209,-1.0175,-1.016,-1.0128,-1.0102,-1.0054,-1.003,-0.9999,-0.9994,-0.9981,-0.9989,-0.9994,-0.9992,-0.9994,-0.9991,-0.998,-0.998,-0.9979,-0.9979,0,-1.0354,-1.0345,-1.032,-1.029,-1.0269,-1.0245,-1.0221,-1.0208,-1.0184,-1.0163,-1.0132,-1.0112,-1.0071,-1.004,-1.0007,-0.9988,-0.9979,-0.9977,-0.9972,-0.9976,-0.9984,-0.9978,-1.0015,-0.9978,-0.9978,-0.9978,-0.9978,-0.9978,-1.0341,-1.0323,-1.0295,-1.0267,-1.0247,-1.0224,-1.0204,-1.0184,-1.0158,-1.0124,-1.0113,-1.0081,-1.0052,-1.0006,-0.9988,-0.9961,-0.9961,-0.9954,-0.9952,-0.995,-0.9949,-0.9989,-0.9955,-0.9955,-0.9955,-0.9955,-0.9955,0,-1.0317,-1.0298,-1.0272,-1.0239,-1.0216,-1.021,-1.0182,-1.0163,-1.0135,-1.0109,-1.0084,-1.0047,-1.0016,-0.9989,-0.9957,-0.994,-0.9935,-0.9932,-0.9933,-0.9929,-0.9952,-0.9959,-0.9937,-0.9937,-0.9937,-0.9937,-0.9937,-0.9937,-1.0302,-1.027,-1.0257,-1.0215,-1.0196,-1.0165,-1.0149,-1.0127,-1.0106,-1.0066,-1.0041,-1.0024,-0.9997,-0.9962,-0.9933,-0.9925,-0.9913,-0.9912,-0.9903,-0.9925,-0.9927,-0.9929,-0.9936,-0.9909,-0.9909,-0.9882,-0.9882,-0.9882]},{"header":{"parameterUnit":"m.s-1","parameterCategory":1,"la1":30.2991,"la2":30.254,"lo1":-89.0895,"lo2":-89.0444,"dy":0.0017,"dx":0.0017,"nx":28,"ny":28,"refTime":"2025-05-27T21:00:00:Z","depth":0,"parameterNumber":3,"parameterNumberName":"V-component_of_WINDS"},"data":[0,0,0,0,0,0,0,0,0,0,0,0,0,0,0,0,0,0,0,0,0,0,0,0,0,0,0,0,0,0,0,0,0,0,0,0,0,0,0,0,0,0,0,0,0,0,0,0,0,0,0,0,0,0,0,0,0,0,4.3131,4.3131,0,4.3112,4.3112,4.3111,4.311,4.311,4.311,4.311,4.3086,4.3086,4.3085,0,0,0,0,0,0,0,0,0,0,0,0,0,4.3164,4.3163,4.3131,4.3131,4.3131,4.3112,4.3112,4.3111,4.311,4.311,4.311,4.311,4.3087,4.3086,4.3085,0,0,0,0,0,0,0,0,0,0,0,0,0,4.3147,4.3163,4.3131,4.3128,4.3127,4.3112,4.3112,4.3111,4.311,4.311,4.311,4.3111,4.3087,4.3086,4.3084,4.307,0,0,4.3081,4.308,0,0,0,0,0,0,0,0,4.3148,4.3146,4.3128,4.3128,4.3127,4.3114,4.3114,4.3097,4.311,4.3116,4.311,4.3111,4.3095,4.3093,4.3088,4.3069,4.3068,4.3081,4.308,4.3079,4.3079,0,0,0,0,0,0,0,4.3149,4.3147,4.3123,4.3128,4.3127,4.3126,4.3124,4.3111,4.3104,4.3116,4.3115,4.3113,4.3095,4.309,4.3088,4.3068,4.3081,4.3079,4.3079,4.3078,4.3037,4.3036,0,0,0,0,0,0,4.3152,4.3148,4.3124,4.3123,4.3139,4.3125,4.3123,4.3118,4.3104,4.3102,4.3113,4.3113,4.3092,4.3089,4.3087,4.307,4.3079,4.3078,4.3077,4.3037,4.3037,4.3036,0,0,0,0,0,0,4.3152,4.315,4.3125,4.3135,4.3132,4.3124,4.3118,4.3117,4.3112,4.3102,4.31,4.311,4.3092,4.3089,4.3075,4.3069,4.3077,4.3076,4.3037,4.3037,4.3036,4.3036,0,0,0,0,0,0,4.3153,4.315,4.3145,4.3135,4.3132,4.3114,4.3118,4.3116,4.311,4.3111,4.3098,4.3097,4.3092,4.3077,4.3074,4.3068,4.3075,4.3038,4.3037,4.3037,4.3036,4.3035,4.3034,0,0,0,0,0,4.3154,4.3144,4.3145,4.3142,4.3125,4.3113,4.3111,4.3107,4.311,4.3105,4.3099,4.3097,4.3071,4.3075,4.3072,4.3065,4.3038,4.3037,4.3037,4.3037,4.3035,4.3035,0,0,0,0,0,0,4.3151,4.3143,4.3143,4.313,4.3123,4.3113,4.3106,4.3106,4.3096,4.3097,4.3091,4.3088,4.3075,4.3069,4.3074,4.3051,4.3055,4.3053,4.3056,4.3055,4.3054,4.3055,4.3074,0,0,0,0,0,4.3149,4.3141,4.3134,4.3123,4.3119,4.3114,4.3108,4.3106,4.3098,4.3094,4.3087,4.3078,4.3068,4.3061,4.3051,4.3036,4.3033,4.303,4.3029,4.3028,4.3027,4.3019,4.3018,4.3034,4.3034,4.3034,0,0,4.3144,4.3139,4.3134,4.3122,4.3116,4.3108,4.3111,4.3101,4.3094,4.3092,4.3079,4.3074,4.3063,4.3049,4.3042,4.3044,4.3022,4.3027,4.3027,4.3025,4.3018,4.3017,4.3015,4.3033,4.3033,4.3033,0,0,4.3131,4.3126,4.3117,4.3112,4.3104,4.31,4.3098,4.3089,4.3086,4.3074,4.3072,4.3064,4.3046,4.3039,4.3033,4.302,4.3018,4.3017,4.3012,4.3005,4.3003,4.3002,4.2998,4.2996,4.3015,4.3015,4.3015,0,4.3126,4.3114,4.3112,4.3103,4.3098,4.3098,4.3088,4.3082,4.3071,4.3067,4.3069,4.3048,4.3041,4.3026,4.3023,4.3018,4.3015,4.3018,4.3004,4.3003,4.3002,4.2997,4.2996,4.3015,4.3015,4.3015,4.3015,0,4.3108,4.31,4.3093,4.3084,4.3078,4.3069,4.3065,4.3059,4.3058,4.3054,4.3041,4.3033,4.3022,4.3019,4.3016,4.3003,4.3005,4.3005,4.3008,4.3,4.2996,4.2994,4.3015,4.3015,4.3015,4.3015,0,0,4.3091,4.3083,4.308,4.3076,4.3068,4.3062,4.3052,4.3043,4.3039,4.3031,4.3023,4.3009,4.3011,4.3004,4.3001,4.2995,4.2986,4.2997,4.2996,4.2995,4.2972,4.2971,4.2969,4.2985,4.2985,4.2985,4.2973,0,4.3077,4.3062,4.3061,4.3047,4.3039,4.304,4.3032,4.3026,4.3022,4.3015,4.3011,4.3001,4.3003,4.3,4.2994,4.2988,4.2981,4.2989,4.2977,4.2977,4.298,4.2967,4.2966,4.2955,4.2971,4.2971,4.2971,0,4.3058,4.3052,4.3038,4.3033,4.303,4.3023,4.3015,4.3008,4.3001,4.2999,4.2993,4.2992,4.2982,4.2986,4.2973,4.2978,4.2974,4.297,4.297,4.2968,4.2973,4.2965,4.2951,4.295,4.2968,4.2968,4.2968,0,4.3048,4.3036,4.3026,4.3023,4.3016,4.3012,4.3008,4.3002,4.2997,4.299,4.2987,4.2979,4.2974,4.2967,4.2963,4.2967,4.295,4.2954,4.2948,4.2948,4.2944,4.2944,4.2929,4.2941,4.2941,4.2941,4.2941,0,4.3032,4.3023,4.3022,4.3016,4.3006,4.3005,4.2995,4.2992,4.2987,4.298,4.298,4.2973,4.2969,4.2961,4.2958,4.2948,4.2946,4.2943,4.2943,4.2943,4.2944,4.294,4.294,4.2941,4.2941,4.2941,4.2941,0,4.3018,4.3017,4.3006,4.3002,4.3,4.2994,4.2989,4.2983,4.2981,4.2972,4.297,4.2966,4.2957,4.2953,4.2942,4.294,4.2929,4.2928,4.2931,4.2931,4.2925,4.2926,4.2907,4.2904,4.2918,4.2918,4.2918,0,4.3008,4.3002,4.2997,4.2993,4.2991,4.2984,4.298,4.2978,4.2974,4.2967,4.2962,4.2954,4.2947,4.2934,4.2929,4.2921,4.292,4.2915,4.2919,4.292,4.2921,4.2921,4.2921,4.2913,4.2913,4.2913,4.2913,0,4.2991,4.2991,4.2985,4.298,4.2975,4.297,4.2966,4.2962,4.296,4.2955,4.2948,4.2943,4.2933,4.2925,4.2917,4.2913,4.2912,4.2912,4.291,4.291,4.2913,4.2912,4.2929,4.2912,4.2912,4.2912,4.2912,4.2912,4.2978,4.2973,4.297,4.2964,4.2961,4.2957,4.2952,4.295,4.2944,4.2936,4.2936,4.2928,4.2922,4.2912,4.2908,4.2901,4.2902,4.29,4.2899,4.2898,4.2898,4.2914,4.29,4.29,4.29,4.29,4.29,0,4.2961,4.296,4.2954,4.2949,4.2944,4.2947,4.2942,4.2938,4.2931,4.2927,4.2921,4.2913,4.2906,4.2901,4.2894,4.289,4.2889,4.2888,4.2888,4.2887,4.2897,4.29,4.2888,4.2888,4.2888,4.2888,4.2888,4.2888,4.2952,4.2944,4.2944,4.2934,4.2932,4.2925,4.2923,4.2919,4.2916,4.2907,4.2902,4.29,4.2896,4.2889,4.2882,4.2881,4.2878,4.2877,4.2876,4.2885,4.2886,4.2887,4.289,4.2876,4.2876,4.2866,4.2866,4.2866]}]]